Royal Cup Race - Trainer

Station: 70 miles - T Race

Distance: 70 Miles

Release: 13-Oct-2021 07:45

Weather Release:    Arrival:

Wind at Release:     Wind at Arrival:

Temp at Release: °    Temp at Arrival: °

Lofts: 216

Birds: 827

Clocked: 818

Good Luck to Everyone!
Drops Pos Breeder Pigeon Name Color Sex Ent Arrival Speed To Win Elg PdSB25100
1 Jenkins Racing - CA 2157-AU21-JENK BB C 1 09:06:51.00 1505.192 00:00:00 Yes
2 Michael Kelly - CA 5158-AU21-ARC Miss Maggie DC H 1 09:06:54.80 1504.029 00:00:04 Yes
3 Lonestar Loft - TX 0444-AU21-DEN RC H 1 09:07:01.40 1502.012 00:00:10 Yes
4 De La O-Siino-Navarez - CA 0332-AU21-NEVA BB 0 1 09:07:03.60 1501.340 00:00:13 Yes
5 Goetz Racing Loft - KY 104183-AU21-ARPU BBWF C 1 09:08:00.50 1484.188 00:01:09 Yes
6 La Morita Loft - NJ 0689-IF21-ACS BB H 1 09:08:51.00 1469.290 00:02:00 Yes
7 Carter Mayotte - AB 2624-AU21-GRAI BBSP H 1 09:08:54.70 1468.211 00:02:04 Yes
8 Jiang Tou Loft - TN 0938-AU21-TOU 🛑🛑圣帝🛑🛑 BBSP H 1 09:09:00.60 1466.492 00:02:10 Yes
9 B T C Racing - CA 41515-AU21-JEDD BB C 1 09:09:01.30 1466.288 00:02:10 Yes
10 Carter Mayotte - AB 2668-AU21-GRAI DC H 2 09:09:01.80 1466.143 00:02:11 Yes
11 Amg - CA 0952-AU21-AMG Burdey BB H 1 09:09:04.10 1465.475 00:02:13 Yes
12 Gene And Eddie - CA 0303-AU21-GENE BB H 1 09:09:07.00 1464.632 00:02:16 Yes
13 Rick Barker - CA 0214-AU21-VIP BB H 1 09:09:07.10 1464.603 00:02:16 Yes
14 Shi Loft - PA 2234-IF21-ERIE BB C 1 09:09:07.40 1464.516 00:02:16 Yes
15 Pleasant Task Farm - PA 0225-AU21-PTF 13900 x 13829 RC H 1 09:09:07.90 1464.371 00:02:17 Yes
16 We-Be-Two - CA 0161-AU21-WEBE OLE HEAVY-11053 X 2 BB H 1 09:09:12.60 1463.009 00:02:22 Yes
17 Nemeth Family Loft - CA 0852-AU21-NEME BB H 1 09:09:13.50 1462.749 00:02:22 Yes
18 Canby and Chiang - CA 8535-AU21-BON BB H 1 09:09:13.90 1462.633 00:02:23 Yes
19 C P C A Synd. - AZ 0493-AU21-DUTC BB C 1 09:09:14.00 1462.604 00:02:23 Yes
20 Kalanianaole Loft - CA 1199-AU21-FVC BB C 1 09:09:18.10 1461.418 00:02:27 Missing
21 Marlee Doms - IN 4978-AU21-VITA BBWF H 1 09:09:19.10 1461.129 00:02:28 Yes
21 Callahan Loft - MO 0252-AU21-AA BB C 1 09:09:19.10 1461.129 00:02:28 Yes
23 Alex Ruiz - CA 0038-AU21-VPC BC H 1 09:09:19.50 1461.014 00:02:28 Yes
24 Barkey - TX 0730-AU21-BARK BB H 1 09:09:22.40 1460.177 00:02:31 Yes
25 Bieche Lofts - CA 1190-AU21-BIEC BB H 1 09:09:27.80 1458.621 00:02:37 Missing
26 O C F Syndicate - CA 1024-AU21-TOP BC C 1 09:09:28.40 1458.448 00:02:37 Yes
26 Clausing - FL 0087-IF21-CLAU BC H 1 09:09:28.40 1458.448 00:02:37 Yes
28 Genesis Syndicate Loft - AZ 0229-AU21-GENS BBWF H 1 09:09:29.10 1458.247 00:02:38 Yes
29 Li Yan - CA 8099-AU21-BON BBSP H 1 09:09:30.40 1457.873 00:02:39 Yes
30 Zulu Synd. - VA 0004-IF21-ZULU Express DC C 1 09:09:31.80 1457.471 00:02:41 Yes
31 Omelio Perez - NM 21643-AU21-NMRP BB H 1 09:09:34.80 1456.609 00:02:44 Yes
31 Jiang Tou Loft - TN 0959-AU21-TOU 🛑🛑圣帝🛑🛑 BCSP H 2 09:09:34.80 1456.609 00:02:44 Yes
33 H Q Z Loft - NC 98058-AU21-ARPU DC 0 1 09:09:34.90 1456.580 00:02:44 Yes
34 John Karnofel - CA 0331-AU21-KFL SUPER LADY BCWF H 1 09:09:35.20 1456.494 00:02:44 Yes
35 Rudolf Loft - CA 2009-AU21-FVC ROZA BC H 1 09:09:37.70 1455.777 00:02:47 Yes
36 Clausing - FL 0114-IF21-CLAU BC H 2 09:09:38.00 1455.691 00:02:47 Yes
37 Ledet-Gutrz - LA 21136-AU21-LEGU BBSP H 1 09:09:39.10 1455.376 00:02:48 Yes
37 We Be She's - NV 21046-AU21-TBW 13069-11010 BC H 1 09:09:39.10 1455.376 00:02:48 Yes
39 Bob Rusty - NV 20238-AU21-JEDD BB H 1 09:09:39.90 1455.147 00:02:49 Yes
40 Mclaughlin/Patros - MA 0266-AU21-Y2K BB C 1 09:09:41.60 1454.660 00:02:51 Yes
41 Van Gruen Loft - CA 1103-AU21-VANG BC C 1 09:09:42.80 1454.317 00:02:52 Yes
42 Sun Loft - MA 8545-AU21-BON BB C 1 09:09:43.10 1454.231 00:02:52 Yes
43 Greek Connection - SC 0258-AU21-GREE 213 x 1242 BB C 1 09:09:44.90 1453.716 00:02:54 Yes
44 123 Bird Love to Fly Loft - CA 0204-AU21-Y2K BLK H 1 09:09:45.30 1453.602 00:02:54 Yes
45 Milestone Loft - CA 0147-AU21-SD BB H 1 09:09:48.30 1452.745 00:02:57 Yes
46 Mesopotamia Loft - CA 0186-AU21-MESO BBSP H 1 09:09:50.60 1452.088 00:03:00 Yes
47 Lillie & Cecil - CA 9911-AU21-JEDD 1351 x 307 DC C 1 09:09:53.50 1451.261 00:03:03 Yes
48 Nanez Family Loft - WI 1179-AU21-NANE BB H 1 09:09:54.20 1451.062 00:03:03 Yes
49 Silicon Valley Syndicate - CA 21057-AU21-SVS BB C 1 09:09:55.00 1450.834 00:03:04 Yes
50 Barker - Vazquez - Beriji - TX 24423-AU21-AA BB H 1 09:09:55.80 1450.606 00:03:05 Yes
50 Tepa sindicato - CA 0517-AU21-SG BBSP H 1 09:09:55.80 1450.606 00:03:05 Yes
52 Zulu Synd. - VA 0025-IF21-ZULA Let It Ride BB H 2 09:09:56.30 1450.464 00:03:05 Yes
53 Kurd Loft - CA 0814-AU21-SD BB C 1 09:09:56.70 1450.350 00:03:06 Yes
54 Andrew E. Skwiat - IN 0136-AU21-ANDY BBSP H 1 09:09:58.10 1449.952 00:03:07 Yes
55 Mullins Family Loft - CA 47927-AU21-JEDD BC H 1 09:09:58.90 1449.724 00:03:08 Yes
56 123 Bird Love to Fly Loft - CA 44458-AU21-JEDD CHOC H 2 09:10:00.10 1449.383 00:03:09 Yes
57 Mesopotamia Loft - CA 0120-AU21-MESO BBSP H 2 09:10:01.90 1448.872 00:03:11 Yes
58 Flying D Loft - TX 1369-IF21-FLYD Flyd 687 / Foys 5866 BB C 1 09:10:04.00 1448.276 00:03:13 Yes
59 RNM Loft - CA 0425-AU21-Y2K BB H 1 09:10:04.30 1448.191 00:03:13 Yes
60 A V A Lofts - CA 27872-AU21-JEDD BBWF C 1 09:10:04.90 1448.021 00:03:14 Yes
61 Alex Ruiz - CA 0037-AU21-VPC BB H 2 09:10:07.30 1447.340 00:03:16 Yes
62 Lonestar Loft - TX 0443-AU21-DEN RC C 2 09:10:07.70 1447.227 00:03:17 Yes
63 Andrew E. Skwiat - IN 0153-AU21-ANDY BBSP H 2 09:10:08.20 1447.085 00:03:17 Yes
64 Flying D Loft - TX 1364-IF21-FLYD Flyd 743 / Flyd 716 BC H 2 09:10:09.00 1446.858 00:03:18 Yes
65 Genesis Syndicate Loft - AZ 0239-AU21-GENS BB H 2 09:10:09.40 1446.745 00:03:18 Yes
66 Barker - Vazquez - Beriji - TX 3714-AU21-VITA BC H 2 09:10:09.50 1446.717 00:03:18 Yes
67 Flying D Loft - TX 1383-IF21-FLYD O/L 2915 / Flyd 290 BB H 3 09:10:10.00 1446.575 00:03:19 Yes
68 Relinski & Schilling - IN 7003-AU21-HAMM BB C 1 09:10:13.00 1445.727 00:03:22 Yes
69 Shi Loft - PA 2001-IF21-ERIE BB C 2 09:10:13.40 1445.613 00:03:22 Yes
70 C Dupraz - FL 0124-AU21-UTEN BCWF C 1 09:10:14.10 1445.416 00:03:23 Yes
71 Patriot Lofts - TX 1031-IF21-E BBWF H 1 09:10:16.50 1444.738 00:03:25 Yes
72 Lonestar Loft - TX 0458-AU21-DEN RC C 3 09:10:17.00 1444.596 00:03:26 Yes
73 Von-Marsin Venus - CA 16338-MX21-FMC BB H 1 09:10:17.80 1444.371 00:03:27 Yes
74 Drama Queen Loft - TX 0928-AU21-GCI 92-46 BB H 1 09:10:18.20 1444.258 00:03:27 Yes
75 123 Bird Love to Fly Loft - CA 44456-AU21-JEDD BC C 3 09:10:18.50 1444.173 00:03:27 Yes
76 D B J Loft - FL 26578-AU21-YMTN BC H 1 09:10:19.10 1444.004 00:03:28 Yes
76 Mike Cambra - CA 113926-AU21-ARPU BBSP H 1 09:10:19.10 1444.004 00:03:28 Lost
78 Andrew E. Skwiat - IN 0166-AU21-ANDY BBSP H 3 09:10:20.80 1443.524 00:03:30 Yes
79 Gold Star Loft - FL 1835-AU21-STON BB 0 1 09:10:21.30 1443.384 00:03:30 Yes
80 Mike Smith/Steven Xi - CA 21310-AU21-MSMI BB C 1 09:10:22.20 1443.130 00:03:31 Yes
81 Sandstrom Brothers Loft - MN 0351-AU21-SBL BB H 1 09:10:22.60 1443.017 00:03:32 Yes
82 Team Phoenix - AZ 0266-AU21-TPHX BB H 1 09:10:23.80 1442.679 00:03:33 Yes
83 Partridge Family Loft - CA 5624-AU21-JEDD BC H 1 09:10:25.30 1442.257 00:03:34 Yes
84 Tony Chang - CA 0718-AU21-PAL BB C 1 09:10:26.40 1441.948 00:03:35 Yes
84 Michael Groe - CA 2161-AU21-GROE 10752X1877 BC H 1 09:10:26.40 1441.948 00:03:35 Missing
86 Von-Marsin Venus - CA 16332-MX21-FMC BBWF H 2 09:10:27.10 1441.751 00:03:36 Yes
87 Cloux Loft - CO 35003-AU21-AA BC C 1 09:10:28.50 1441.357 00:03:37 Yes
88 Hale Nūnū - VA 0009-US21-HALE BB H 1 09:10:28.60 1441.329 00:03:38 Yes
88 Flores Bro’s - CA 1419-AU21-SW1 BBWF H 1 09:10:28.60 1441.329 00:03:38 Yes
90 Team Bof - CA 38332-AU21-AA Sure Bof BBWF H 1 09:10:29.10 1441.189 00:03:38 Yes
91 Vancheri Family Loft - NV 14248-AU21-JEDD Wyatt BBWF H 1 09:10:29.70 1441.020 00:03:39 Yes
92 Nanez Family Loft - WI 1280-AU21-NANE RC H 2 09:10:30.20 1440.879 00:03:39 Yes
93 O And L De Vries - ON 4110-CU21-OL BB H 1 09:10:30.60 1440.767 00:03:40 Yes
93 Rampage Racing - TX 1524-AU21-JFL S JONES BB H 1 09:10:30.60 1440.767 00:03:40 Yes
95 Boksz Loft - CT 2916-IF21-TORR BC H 1 09:10:31.10 1440.627 00:03:40 Yes
96 Kolvenbag & Son - PA 1560-IF21-KOLV BC H 1 09:10:31.50 1440.514 00:03:41 Yes
97 O And L De Vries - ON 4116-CU21-OL BB C 2 09:10:34.30 1439.729 00:03:43 Yes
98 Patriot Lofts - TX 1030-IF21-E BB H 2 09:10:36.10 1439.224 00:03:45 Yes
99 La Morita Loft - NJ 0681-IF21-ACS BB H 2 09:10:37.20 1438.916 00:03:46 Yes
100 B T C Racing - CA 41516-AU21-JEDD BB H 2 09:10:38.00 1438.692 00:03:47 Yes

There are 818 bird records

Note: These Race Results are unofficial and subject to change until verified by the Race Committee and declared final.

 


windy
Click for Forecast for 91935 from weatherUSA Leach